CW5430 Weather Reports


Display with metric or nautical units.
time (UTC)temp
F
wind
direction
speed
MPH
gust
MPH
rain 1hr
in
rain 24hr
in
rain mn
in
humidity
%
barometer
mb
20260505102006 60 266 1.0 2.0 0.00 0.00 0.00 71 1010.8
20260505101521 60 273 0.0 2.0 0.00 0.00 0.00 70 1010.7
20260505101009 60 223 0.0 3.0 0.00 0.00 0.00 70 1010.7
20260505100508 60 261 0.0 3.0 0.00 0.00 0.00 69 1010.7
20260505100030 60 234 0.0 3.0 0.00 0.00 0.00 69 1010.6
20260505095508 61 304 0.0 6.0 0.00 0.00 0.00 69 1010.5
20260505095010 61 248 1.0 6.0 0.00 0.00 0.00 69 1010.4
20260505094529 61 288 1.0 7.0 0.00 0.00 0.00 69 1010.4
20260505094010 61 303 0.0 7.0 0.00 0.00 0.00 69 1010.4
20260505093511 60 254 0.0 3.0 0.00 0.00 0.00 69 1010.4
20260505093027 60 257 0.0 4.0 0.00 0.00 0.00 70 1010.4
20260505092512 60 131 2.0 7.0 0.00 0.00 0.00 70 1010.4
20260505092004 59 217 2.0 7.0 0.00 0.00 0.00 71 1010.3
20260505091506 59 105 0.0 6.0 0.00 0.00 0.00 72 1010.4
20260505091006 59 127 0.0 5.0 0.00 0.00 0.00 72 1010.4
20260505090502 59 276 1.0 5.0 0.00 0.00 0.00 73 1010.4
20260505090008 58 221 1.0 4.0 0.00 0.00 0.00 73 1010.4
20260505085504 58 281 0.0 2.0 0.00 0.00 0.00 72 1010.4
20260505085004 58 272 0.0 3.0 0.00 0.00 0.00 72 1010.4
20260505084504 59 232 1.0 3.0 0.00 0.00 0.00 72 1010.5
20260505084007 59 236 0.0 2.0 0.00 0.00 0.00 71 1010.6
20260505083505 59 246 0.0 2.0 0.00 0.00 0.00 71 1010.6
20260505083010 59 246 0.0 2.0 0.00 0.00 0.00 71 1010.4
20260505082503 59 263 0.0 2.0 0.00 0.00 0.00 70 1010.4
20260505082004 59 255 0.0 3.0 0.00 0.00 0.00 70 1010.3
20260505081506 59 251 0.0 3.0 0.00 0.00 0.00 70 1010.3
20260505081003 59 283 0.0 2.0 0.00 0.00 0.00 70 1010.3
20260505080507 59 239 0.0 2.0 0.00 0.00 0.00 70 1010.3
20260505080006 60 236 0.0 2.0 0.00 0.00 0.00 69 1010.4
20260505075503 60 264 0.0 3.0 0.00 0.00 0.00 69 1010.4
20260505075003 60 229 0.0 3.0 0.00 0.00 0.00 69 1010.5
20260505074505 60 225 0.0 2.0 0.00 0.00 0.00 69 1010.5
20260505074005 60 242 0.0 4.0 0.00 0.00 0.00 69 1010.6
20260505073505 60 200 1.0 4.0 0.00 0.00 0.00 69 1010.6
20260505073013 60 302 1.0 4.0 0.00 0.00 0.00 69 1010.6
20260505072502 60 226 0.0 4.0 0.00 0.00 0.00 69 1010.4
20260505072003 60 279 1.0 3.0 0.00 0.00 0.00 69 1010.5
20260505071509 60 273 0.0 2.0 0.00 0.00 0.00 68 1010.5
20260505071005 60 254 0.0 2.0 0.00 0.00 0.00 68 1010.4
20260505070503 60 277 0.0 5.0 0.00 0.00 0.00 68 1010.4
20260505070008 60 238 0.0 5.0 0.00 0.00 0.00 67 1010.4
20260505065503 60 281 1.0 5.0 0.00 0.00 0.00 68 1010.5
20260505065003 60 262 1.0 2.0 0.00 0.00 0.00 68 1010.3
20260505064508 60 147 0.0 2.0 0.00 0.00 0.00 68 1010.4
20260505064007 60 252 0.0 5.0 0.00 0.00 0.00 67 1010.3
20260505063506 60 271 0.0 5.0 0.00 0.00 0.00 67 1010.4
20260505063005 60 248 2.0 5.0 0.00 0.00 0.00 67 1010.2
20260505062504 60 254 2.0 8.0 0.00 0.00 0.00 66 1010.3
20260505062004 60 308 1.0 8.0 0.00 0.00 0.00 66 1010.3
20260505061515 60 230 0.0 4.0 0.00 0.00 0.00 67 1010.4
20260505061003 60 82 1.0 4.0 0.00 0.00 0.00 66 1010.4
20260505060509 60 212 1.0 4.0 0.00 0.00 0.00 66 1010.4
20260505060017 60 269 1.0 5.0 0.00 0.00 0.00 66 1010.3
20260505055505 60 152 1.0 7.0 0.00 0.00 0.00 66 1010.4
20260505055007 61 171 2.0 7.0 0.00 0.00 0.00 65 1010.4
20260505054511 61 240 1.0 6.0 0.00 0.00 0.00 65 1010.4
20260505054007 61 259 1.0 7.0 0.00 0.00 0.00 64 1010.5
20260505053507 61 251 1.0 7.0 0.00 0.00 0.00 65 1010.4
20260505053013 61 232 2.0 5.0 0.00 0.00 0.00 64 1010.4
20260505052508 61 260 1.0 4.0 0.00 0.00 0.00 64 1010.4
20260505052003 61 95 1.0 4.0 0.00 0.00 0.00 64 1010.4
20260505051509 61 102 1.0 4.0 0.00 0.00 0.00 64 1010.5
20260505051005 61 352 1.0 4.0 0.00 0.00 0.00 64 1010.6
20260505050509 61 263 1.0 5.0 0.00 0.00 0.00 64 1010.7
20260505041507 62 283 1.0 7.0 0.00 0.00 0.00 60 1010.4
20260505041004 62 103 1.0 4.0 0.00 0.00 0.00 60 1010.4
20260505040507 62 176 1.0 4.0 0.00 0.00 0.00 60 1010.3
20260505040011 62 220 1.0 6.0 0.00 0.00 0.00 59 1010.3
20260505035504 62 95 1.0 6.0 0.00 0.00 0.00 58 1010.3
20260505035005 62 193 1.0 4.0 0.00 0.00 0.00 58 1010.4
20260505034512 62 183 1.0 4.0 0.00 0.00 0.00 55 1010.3
20260505034008 62 99 1.0 4.0 0.00 0.00 0.00 55 1010.3
20260505033507 63 241 0.0 7.0 0.00 0.00 0.00 55 1010.4
20260505033014 63 342 1.0 7.0 0.00 0.00 0.00 54 1010.4
20260505032504 63 193 0.0 4.0 0.00 0.00 0.00 52 1010.4
20260505032005 63 53 0.0 5.0 0.00 0.00 0.00 51 1010.5
20260505031511 63 262 0.0 5.0 0.00 0.00 0.00 50 1010.5
20260505031009 63 161 1.0 4.0 0.00 0.00 0.00 49 1010.5
20260505030504 63 163 0.0 4.0 0.00 0.00 0.00 49 1010.4
20260505030009 64 156 1.0 3.0 0.00 0.00 0.00 49 1010.6
20260505025505 64 153 1.0 4.0 0.00 0.00 0.00 1010.6
20260505025007 64 182 1.0 4.0 0.00 0.00 0.00 1010.7
20260505024513 64 265 1.0 2.0 0.00 0.00 0.00 1010.8
20260505024004 64 159 1.0 7.0 0.00 0.00 0.00 1010.8
20260505023504 64 13 1.0 7.0 0.00 0.00 0.00 49 1010.8
20260505023012 64 117 1.0 4.0 0.00 0.00 0.00 49 1010.8
20260505022504 64 261 0.0 4.0 0.00 0.00 0.00 49 1010.8
20260505022007 64 287 0.0 6.0 0.00 0.00 0.00 49 1010.9
20260505021516 64 124 1.0 6.0 0.00 0.00 0.00 49 1010.8
20260505021006 64 147 1.0 6.0 0.00 0.00 0.00 1010.8
20260505020507 64 286 1.0 6.0 0.00 0.00 0.00 1010.8
20260505020018 64 277 0.0 2.0 0.00 0.00 0.00 1010.7
20260505015507 64 289 0.0 4.0 0.00 0.00 0.00 1010.8
20260505015005 64 131 0.0 4.0 0.00 0.00 0.00 1010.7
20260505014510 64 106 0.0 3.0 0.00 0.00 0.00 1010.7
20260505014004 64 169 0.0 3.0 0.00 0.00 0.00 1010.7
20260505013505 64 265 1.0 4.0 0.00 0.00 0.00 1010.8
20260505013018 64 246 0.0 4.0 0.00 0.00 0.00 50 1010.7
20260505012509 64 102 0.0 2.0 0.00 0.00 0.00 50 1010.7
20260505012008 64 236 0.0 3.0 0.00 0.00 0.00 50 1010.6
20260505011521 64 118 0.0 3.0 0.00 0.00 0.00 50 1010.6
20260505011011 64 76 0.0 2.0 0.00 0.00 0.00 49 1010.5
20260505010504 64 86 0.0 2.0 0.00 0.00 0.00 49 1010.4
20260505010014 64 276 1.0 2.0 0.00 0.00 0.00 49 1010.3
20260505005507 64 80 0.0 3.0 0.00 0.00 0.00 48 1010.3
20260505005006 64 245 0.0 3.0 0.00 0.00 0.00 47 1010.1
20260505004513 64 117 0.0 2.0 0.00 0.00 0.00 48 1010.0
20260505004004 64 171 0.0 2.0 0.00 0.00 0.00 46 1009.9
20260505003506 65 171 0.0 2.0 0.00 0.00 0.00 45 1010.0
20260505003016 65 256 0.0 2.0 0.00 0.00 0.00 47 1009.9
20260505002510 65 265 0.0 2.0 0.00 0.00 0.00 46 1009.9
20260505002005 66 260 0.0 2.0 0.00 0.00 0.00 45 1009.8
20260505001515 66 260 0.0 2.0 0.00 0.00 0.00 44 1009.8
20260505001006 66 250 0.0 2.0 0.00 0.00 0.00 44 1009.9
20260505000506 67 123 0.0 2.0 0.00 0.00 0.00 42 1009.9
20260505000027 67 180 0.0 2.0 0.00 0.00 0.00 42 1009.9
20260504235507 68 199 0.0 8.0 0.00 0.00 0.00 42 1009.9
20260504235005 68 252 1.0 8.0 0.00 0.00 0.00 40 1009.9
20260504234516 68 256 0.0 5.0 0.00 0.00 0.00 40 1009.9
20260504234008 68 259 1.0 6.0 0.00 0.00 0.00 41 1009.7
20260504233508 68 140 1.0 5.0 0.00 0.00 0.00 40 1009.6
20260504233012 69 215 1.0 7.0 0.00 0.00 0.00 41 1009.6
20260504232506 69 225 0.0 7.0 0.00 0.00 0.00 39 1009.6
20260504232007 69 267 2.0 9.0 0.00 0.00 0.00 40 1009.6
20260504231515 69 233 0.0 9.0 0.00 0.00 0.00 39 1009.6
20260504231007 69 268 0.0 6.0 0.00 0.00 0.00 40 1009.6
20260504230507 69 243 1.0 9.0 0.00 0.00 0.00 39 1009.6
20260504230020 70 175 2.0 9.0 0.00 0.00 0.00 38 1009.6
20260504225505 70 248 1.0 5.0 0.00 0.00 0.00 39 1009.5
20260504225006 70 65 1.0 7.0 0.00 0.00 0.00 38 1009.5
20260504224515 70 259 3.0 7.0 0.00 0.00 0.00 36 1009.6
20260504224008 70 135 2.0 10.0 0.00 0.00 0.00 38 1009.6
20260504223505 71 296 3.0 10.0 0.00 0.00 0.00 36 1009.6
20260504223010 71 271 2.0 7.0 0.00 0.00 0.00 36 1009.6
20260504222504 71 243 2.0 13.0 0.00 0.00 0.00 37 1009.7
20260504222009 71 311 1.0 13.0 0.00 0.00 0.00 36 1009.7
20260504221518 71 267 2.0 5.0 0.00 0.00 0.00 36 1009.7
20260504221007 71 279 1.0 9.0 0.00 0.00 0.00 37 1009.6
20260504220507 71 82 2.0 9.0 0.00 0.00 0.00 36 1009.7
20260504220015 71 247 3.0 7.0 0.00 0.00 0.00 35 1009.7
20260504215507 71 214 2.0 11.0 0.00 0.00 0.00 36 1009.9
20260504215011 72 94 1.0 11.0 0.00 0.00 0.00 36 1009.9
20260504214516 72 281 1.0 7.0 0.00 0.00 0.00 34 1009.9
20260504214005 72 275 1.0 9.0 0.00 0.00 0.00 34 1010.0
20260504213504 73 295 4.0 10.0 0.00 0.00 0.00 35 1010.0
20260504213026 74 189 2.0 10.0 0.00 0.00 0.00 36 1009.9
20260504212505 74 229 1.0 8.0 0.00 0.00 0.00 36 1010.0
20260504212009 74 238 2.0 8.0 0.00 0.00 0.00 35 1010.0
20260504211517 74 253 2.0 6.0 0.00 0.00 0.00 34 1009.8
20260504211007 74 293 2.0 9.0 0.00 0.00 0.00 33 1009.8
20260504210508 74 258 3.0 9.0 0.00 0.00 0.00 32 1009.8
20260504210019 74 238 1.0 8.0 0.00 0.00 0.00 35 1009.8
20260504205507 74 140 2.0 8.0 0.00 0.00 0.00 32 1009.9
20260504205006 74 236 4.0 7.0 0.00 0.00 0.00 32 1009.8
20260504204519 74 271 3.0 10.0 0.00 0.00 0.00 33 1009.8
20260504204009 74 248 2.0 10.0 0.00 0.00 0.00 33 1009.9
20260504203513 74 240 3.0 11.0 0.00 0.00 0.00 34 1009.8
20260504203008 74 210 4.0 11.0 0.00 0.00 0.00 32 1010.0
20260504202504 74 259 3.0 9.0 0.00 0.00 0.00 33 1010.1
20260504202004 74 202 3.0 11.0 0.00 0.00 0.00 33 1010.1
20260504201517 74 277 2.0 11.0 0.00 0.00 0.00 33 1010.0
20260504201010 74 308 2.0 7.0 0.00 0.00 0.00 32 1010.0
20260504200507 74 263 2.0 8.0 0.00 0.00 0.00 33 1010.0
20260504200016 74 126 2.0 8.0 0.00 0.00 0.00 32 1010.0
20260504195506 75 267 2.0 7.0 0.00 0.00 0.00 33 1010.2
20260504195011 75 321 1.0 8.0 0.00 0.00 0.00 35 1010.2
20260504194519 74 105 2.0 8.0 0.00 0.00 0.00 34 1010.2
20260504194008 74 184 2.0 9.0 0.00 0.00 0.00 31 1010.2
20260504193508 74 246 2.0 9.0 0.00 0.00 0.00 31 1010.3
20260504193021 74 254 3.0 8.0 0.00 0.00 0.00 33 1010.3
20260504192503 75 263 3.0 7.0 0.00 0.00 0.00 34 1010.3
20260504192004 75 109 2.0 7.0 0.00 0.00 0.00 35 1010.4
20260504191507 74 254 2.0 9.0 0.00 0.00 0.00 31 1010.4
20260504191003 74 264 3.0 9.0 0.00 0.00 0.00 32 1010.5
20260504190508 74 200 1.0 9.0 0.00 0.00 0.00 34 1010.6
20260504190014 74 209 3.0 9.0 0.00 0.00 0.00 34 1010.6
20260504185510 74 204 2.0 9.0 0.00 0.00 0.00 33 1010.8
20260504185011 73 148 3.0 9.0 0.00 0.00 0.00 35 1010.9
20260504184518 74 152 1.0 8.0 0.00 0.00 0.00 32 1010.9
20260504184007 74 216 2.0 11.0 0.00 0.00 0.00 36 1010.9
20260504183511 73 242 1.0 11.0 0.00 0.00 0.00 35 1010.9
20260504183024 73 188 2.0 8.0 0.00 0.00 0.00 35 1010.9
20260504182509 73 282 3.0 8.0 0.00 0.00 0.00 35 1011.0
20260504182010 73 191 3.0 8.0 0.00 0.00 0.00 33 1011.1
20260504181508 73 250 2.0 5.0 0.00 0.00 0.00 33 1011.1
20260504181004 73 229 1.0 7.0 0.00 0.00 0.00 38 1011.2
20260504180507 72 138 1.0 10.0 0.00 0.00 0.00 40 1011.3
20260504180010 72 235 3.0 10.0 0.00 0.00 0.00 35 1011.4
20260504175505 72 221 2.0 8.0 0.00 0.00 0.00 37 1011.3
20260504175009 72 269 2.0 14.0 0.00 0.00 0.00 35 1011.6
20260504174514 72 134 3.0 14.0 0.00 0.00 0.00 35 1011.7
20260504174009 72 263 4.0 14.0 0.00 0.00 0.00 33 1011.7
20260504173513 72 299 2.0 6.0 0.00 0.00 0.00 38 1011.8
20260504173033 71 260 2.0 7.0 0.00 0.00 0.00 38 1011.9
20260504172508 71 267 3.0 9.0 0.00 0.00 0.00 36 1011.9
20260504172009 71 231 2.0 9.0 0.00 0.00 0.00 35 1012.0
20260504171523 71 257 4.0 8.0 0.00 0.00 0.00 32 1012.2
20260504171009 71 185 3.0 8.0 0.00 0.00 0.00 35 1012.2
20260504170505 71 317 2.0 7.0 0.00 0.00 0.00 38 1012.2
20260504151013 67 311 1.0 6.0 0.00 0.00 0.00 46 1013.7
20260504150511 67 290 2.0 9.0 0.00 0.00 0.00 43 1013.8
20260504141014 63 235 2.0 7.0 0.00 0.00 0.00 56 1013.9
20260504140508 63 228 1.0 8.0 0.00 0.00 0.00 54 1013.9
20260504130510 59 235 3.0 7.0 0.00 0.00 0.00 61 1014.3
20260504110507 49 234 1.0 5.0 0.00 0.00 0.00 77 1014.7